Location: Hochstatterhof
(48.7256°N, 10.3487°E)
Time: 02:28:11
(UTC+00:00)

NOSS 3-4 (C) - Pass Details

Date: 26 September 2023
Orbit: 824 x 1389 km, 63.4° (Epoch: 23 November)

Event Time Altitude Azimuth Distance (km) Brightness Sun altitude
Exits shadow 02:10:59 37° 322° (NW) 1,365 4.2 -28.6°
Maximum altitude 02:11:18 38° 329° (NNW) 1,364 4.2 -28.6°
Drops below altitude 10° 02:17:09 10° 36° (NE) 2,748 6.7 -27.8°
Sets 02:20:07 0° 45° (NE) 3,791 7.8 -27.4°
